#timestamp,LO_Frequency,Hit,StdDev 
1648148415.4,286047004.2,N
1648148435.2,286047001.6,N
1648148455.1,286047002.3,N
1648148456.0,286047002.3,N
1648148475.8,286047002.0,N
1648148495.7,286047003.3,N
1648148515.5,286047003.5,N
1648148535.3,286047002.9,N
1648148555.2,286047005.6,N
1648148575.0,286047006.0,N
1648148605.9,286047004.7,E
1648148615.9,286047004.1,N
1648148635.7,286047000.8,P
1648148655.5,286046998.7,N
1648148675.4,286046998.6,N
1648148695.2,286047001.2,N
1648148715.0,286046999.4,N
1648148715.9,286046999.4,N
1648148735.8,286046997.4,N
1648148755.6,286046995.4,N
1648148775.5,286046994.1,N
1648148795.3,286046992.2,N
1648148815.1,286046990.5,N
1648148835.9,286046992.6,N
1648148855.7,286046990.3,N
1648148875.6,286046991.3,N
1648148895.4,286046993.0,N
1648148915.2,286046995.2,N
1648148935.1,286046994.9,N
1648148936.0,286046994.9,N
1648148955.8,286046995.7,N
1648148975.7,286046995.8,N
1648148995.5,286046993.7,N
1648149015.3,286046996.3,N
1648149035.2,286046991.9,N
1648149055.0,286046989.2,Y
1648149055.9,286046989.2,P
1648149075.8,286046992.3,N
1648149095.6,286046994.2,N
1648149115.4,286046992.8,N
1648149135.3,286046990.1,Y
1648149155.1,286046986.3,P
1648149175.8,286047001.2,N
1648149195.7,286046999.8,N
1648149215.5,286047002.1,N
1648149235.4,286047000.5,N
1648149255.2,286046998.9,N
1648149275.0,286046998.5,N
1648149275.9,286046998.5,N
1648149295.8,286047002.0,N
1648149315.6,286047001.0,N
1648149335.4,286046998.3,N
1648149355.3,286046999.2,N
1648149375.1,286046996.7,N
1648149395.9,286046998.8,N
1648149415.7,286046999.5,N
1648149435.5,286046999.5,N
1648149455.4,286046996.7,N
1648149475.2,286046997.1,N
1648149495.0,286046997.4,N
1648149495.9,286046997.4,N
1648149515.8,286046995.6,N
1648149535.6,286046995.7,N
1648149555.5,286046993.4,N
1648149575.3,286046995.7,N
1648149595.1,286046997.3,N
1648149615.9,286046997.0,N
1648149635.7,286046995.4,N
1648149655.6,286046995.3,N
1648149675.4,286046994.9,N
1648149695.2,286046993.7,N
1648149715.1,286046994.6,N
1648149716.0,286046994.6,N
1648149735.8,286046995.1,N
1648149755.7,286046996.2,N
1648149775.5,286046995.8,N
1648149795.3,286046997.5,N
1648149815.2,286046998.0,N
1648149835.0,286046996.2,N
1648149835.9,286046996.2,N
1648149855.8,286046994.3,Y
1648149875.6,286046996.9,P
1648149895.4,286046997.9,P
1648149915.3,286046996.5,P
1648149935.1,286046997.0,Y
1648149955.8,286046998.8,P
1648149975.7,286046999.4,N
1648149995.5,286046997.7,N
1648150015.4,286046997.7,N
1648150035.2,286046995.0,Y
1648150055.0,286046998.2,P
1648150055.9,286046998.2,P
1648150075.8,286047000.4,P
1648150095.6,286047000.1,N
1648150115.5,286047000.3,N
1648150135.3,286047000.7,N
1648150155.1,286046998.6,N
1648150175.9,286047000.5,N
1648150195.7,286047000.4,N
1648150215.5,286047002.5,N
1648150235.4,286047002.4,N
1648150255.2,286047000.6,N
1648150275.1,286047000.6,N
1648150276.0,286047000.6,N
1648150295.8,286046998.9,N
1648150315.6,286047000.6,N
1648150335.5,286047000.0,N
1648150355.3,286047002.4,N
1648150375.1,286047001.4,N
1648150395.9,286047003.6,N
1648150415.7,286047004.2,N
1648150435.6,286046999.7,N
1648150455.4,286046998.8,N
1648150475.2,286046998.8,N
1648150495.1,286046997.2,N
1648150496.0,286046997.2,N
1648150515.8,286046998.8,N
1648150535.6,286046996.9,N
1648150555.5,286046996.6,N
1648150575.3,286046998.5,N
1648150595.2,286046998.6,N
1648150615.0,286047000.0,N
1648150615.9,286047000.0,N
1648150635.8,286047000.4,N
1648150655.6,286047002.8,N
1648150675.4,286047000.2,N
1648150695.3,286046999.9,N
1648150715.1,286047000.9,N
1648150735.9,286047000.1,N
1648150755.7,286047000.2,N
1648150775.5,286047000.3,N
1648150795.4,286047000.0,N
1648150815.2,286047000.4,N
1648150835.0,286047000.4,N
1648150835.9,286047000.4,N
1648150855.8,286047001.0,N
1648150875.6,286046999.1,N
1648150895.5,286046997.4,N
1648150915.3,286046996.5,N
1648150935.1,286046997.6,N
1648150955.9,286046997.9,N
1648150975.7,286046997.7,N
1648150995.5,286047001.2,N
1648151015.4,286047000.7,N
1648151035.2,286046999.7,N
1648151055.1,286047001.7,N
1648151056.0,286047001.7,N
1648151075.8,286047001.0,N
1648151095.6,286047001.1,N
1648151115.5,286046998.6,N
1648151135.3,286046998.9,N
1648151155.1,286046998.3,N
1648151175.9,286046997.2,N
1648151195.7,286046999.0,N
1648151215.6,286046999.6,N
1648151235.4,286046999.2,N
1648151255.2,286046996.6,N
1648151275.1,286046994.9,Y
1648151276.0,286046994.9,P
1648151295.8,286046997.3,N
1648151315.7,286046999.1,N
1648151335.5,286046998.3,N
1648151355.3,286046996.8,N
1648151375.2,286046997.8,N
1648151395.0,286046999.6,N
1648151395.9,286046999.6,N
1648151415.7,286046999.2,N
1648151435.6,286046997.0,N
1648151455.4,286046999.1,N
1648151475.3,286046998.6,N
1648151495.1,286046998.3,N
1648151515.8,286046999.7,N
1648151535.7,286047000.6,N
1648151555.5,286047000.3,N
1648151575.4,286047001.0,N
1648151595.2,286047000.8,N
1648151615.0,286047000.8,N
1648151615.9,286047000.8,N
1648151635.8,286046998.2,N
1648151655.6,286047001.1,N
1648151675.4,286046998.6,N
1648151695.3,286047001.1,N
1648151715.1,286047000.4,N
1648151735.9,286047002.3,N
1648151755.7,286047002.8,N
1648151775.5,286046999.9,N
1648151795.4,286047000.3,N
1648151815.2,286046999.9,N
1648151835.0,286047000.7,N
1648151835.9,286047000.7,N
1648151855.8,286047000.3,N
1648151875.6,286047002.7,N
1648151895.5,286047002.6,N
1648151915.3,286047004.3,Y
1648151935.1,286047002.1,P
1648151955.9,286046999.8,N
1648151975.7,286047001.5,N
1648151995.5,286047000.2,N
